Arcata, CA

9:58 PM PST on February 10, 2016 (GMT -0800)
Arcata

Weather History for KACV - October, 2012

Change the Weather History Date:

Saturday, October 20, 2012

  Actual Average Record
Temperature  
Mean Temperature 50 °F -  
Max Temperature 60 °F 60 °F 78 °F (1998)
Min Temperature 42 °F 42 °F 35 °F (1996)
Degree Days  
Heating Degree Days 14    
Moisture  
Dew Point 50 °F    
Average Humidity 89    
Maximum Humidity 100    
Minimum Humidity 53    
Precipitation  
Precipitation 0.00 in - - ()
Sea Level Pressure  
Sea Level Pressure 30.02 in    
Wind  
Wind Speed 5 mph (North)    
Max Wind Speed 17 mph    
Max Gust Speed 22 mph    
Visibility 6 miles    
Events Fog    
Averages and records for this station are not official NWS values.
T = Trace of Precipitation, MM = Missing Value Source: NWS Daily Summary

Daily Weather History Graph

Daily Weather History Graph

Search for Another Location

Airport or City:

Trip Planner

Search our weather history database for the weather conditions in past years. The results will help you decide how hot, cold, wet, or windy it might be!

Date:

Astronomy

Oct. 20, 2012 Rise Set
Actual Time 7:34 AM PDT 6:27 PM PDT
Civil Twilight 7:06 AM PDT 6:55 PM PDT
Nautical Twilight 6:34 AM PDT 7:27 PM PDT
Astronomical Twilight 6:02 AM PDT 7:59 PM PDT
Moon 1:15 PM PDT (10/20) 11:18 PM PDT (10/20)
Length of Visible Light 11h 49m
Length of Day
10h 53m
Waxing Crescent, 35% of the Moon is Illuminated
Oct 20
Waxing Crescent
Oct 21
First Quarter
Oct 29
Full
Nov 6
Last Quarter
Nov 13
New

Hourly Weather History & Observations

Time (PDT) Temp. Windchill Dew Point Humidity Pressure Visibility Wind Dir Wind Speed Gust Speed Precip Events Conditions
12:03 AM 53.6 °F - 53.6 °F 100% 30.00 in 1.0 mi Calm Calm - N/A   Overcast
12:22 AM 53.6 °F - 53.6 °F 100% 30.00 in 0.8 mi NNW 3.5 mph - N/A   Overcast
12:35 AM 53.6 °F - 53.6 °F 100% 30.00 in 0.2 mi Calm Calm - N/A Fog Fog
12:53 AM 54.0 °F - 54.0 °F 100% 30.03 in 0.2 mi Calm Calm - N/A Fog Fog
1:28 AM 53.6 °F - 53.6 °F 100% 30.02 in 0.5 mi Calm Calm - N/A Fog Fog
1:53 AM 54.0 °F - 54.0 °F 100% 30.02 in 0.5 mi Calm Calm - N/A Fog Fog
2:21 AM 53.6 °F - 53.6 °F 100% 30.01 in 1.0 mi Calm Calm - N/A   Mist
2:28 AM 53.6 °F - 53.6 °F 100% 30.01 in 0.5 mi Calm Calm - N/A Fog Fog
2:50 AM 53.6 °F - 53.6 °F 100% 30.02 in 0.2 mi NNW 3.5 mph - N/A Fog Fog
2:53 AM 54.0 °F - 54.0 °F 100% 30.04 in 0.2 mi Calm Calm - N/A Fog Fog
3:53 AM 54.0 °F - 54.0 °F 100% 30.01 in 0.2 mi Calm Calm - N/A Fog Fog
4:53 AM 54.0 °F - 54.0 °F 100% 30.02 in 0.2 mi NE 3.5 mph - 0.00 in Fog Fog
5:12 AM 53.6 °F - 53.6 °F 100% 29.99 in 0.2 mi NW 4.6 mph - N/A Fog Fog
5:31 AM 53.6 °F - 53.6 °F 100% 30.00 in 0.2 mi NW 6.9 mph - N/A Fog Fog
5:53 AM 54.0 °F - 54.0 °F 100% 30.02 in 0.2 mi North 10.4 mph - N/A Fog Fog
6:00 AM 53.6 °F - 53.6 °F 100% 30.00 in 1.0 mi North 9.2 mph - N/A   Mist
6:03 AM 53.6 °F - 53.6 °F 100% 29.99 in 3.0 mi North 8.1 mph - N/A   Overcast
6:13 AM 53.6 °F - 53.6 °F 100% 30.00 in 10.0 mi North 6.9 mph - N/A   Mostly Cloudy
6:45 AM 53.6 °F - 53.6 °F 100% 29.99 in 10.0 mi North 6.9 mph - N/A   Mostly Cloudy
6:53 AM 52.0 °F - 52.0 °F 100% 30.02 in 10.0 mi North 8.1 mph - N/A   Mostly Cloudy
7:02 AM 51.8 °F - 51.8 °F 100% 30.00 in 10.0 mi NNE 8.1 mph - N/A   Mostly Cloudy
7:53 AM 52.0 °F - 48.9 °F 89% 30.02 in 10.0 mi NNW 9.2 mph - N/A   Mostly Cloudy
8:53 AM 54.0 °F - 50.0 °F 86% 30.04 in 10.0 mi North 3.5 mph - N/A   Overcast
9:53 AM 55.9 °F - 51.1 °F 84% 30.06 in 10.0 mi NNW 11.5 mph - N/A   Scattered Clouds
10:35 AM 55.4 °F - 50.0 °F 82% 30.03 in 10.0 mi North 8.1 mph - N/A   Mostly Cloudy
10:53 AM 55.9 °F - 50.0 °F 80% 30.05 in 10.0 mi North 15.0 mph - N/A   Overcast
11:09 AM 57.2 °F - 50.0 °F 77% 30.04 in 10.0 mi North 11.5 mph - N/A   Mostly Cloudy
11:53 AM 57.9 °F - 48.0 °F 70% 30.06 in 10.0 mi North 13.8 mph 21.9 mph N/A   Clear
12:53 PM 57.9 °F - 45.0 °F 62% 30.04 in 10.0 mi North 17.3 mph - N/A   Clear
1:53 PM 59.0 °F - 43.0 °F 55% 30.03 in 10.0 mi North 15.0 mph - N/A   Clear
2:53 PM 57.0 °F - 46.0 °F 67% 30.01 in 10.0 mi NNW 17.3 mph - N/A   Clear
3:53 PM 57.0 °F - 45.0 °F 64% 30.01 in 10.0 mi North 16.1 mph - N/A   Clear
4:53 PM 57.0 °F - 39.9 °F 53% 30.01 in 10.0 mi North 12.7 mph - N/A   Clear
5:53 PM 54.0 °F - 42.1 °F 64% 30.00 in 10.0 mi North 10.4 mph - N/A   Clear
6:53 PM 50.0 °F - 42.1 °F 74% 30.00 in 10.0 mi NNE 6.9 mph - N/A   Clear
7:53 PM 44.1 °F - 41.0 °F 89% 30.01 in 10.0 mi Calm Calm - N/A   Clear
8:53 PM 43.0 °F - 41.0 °F 93% 30.01 in 7.0 mi Calm Calm - N/A   Clear
9:53 PM 42.1 °F 39.2 °F 39.9 °F 92% 30.02 in 10.0 mi East 4.6 mph - N/A   Clear
11:53 PM 43.0 °F 39.5 °F 39.9 °F 89% 30.01 in 10.0 mi East 5.8 mph - N/A   Clear